User: anonymous   Login
Location: Unspecified
(0.0000°N, 0.0000°E)
Time: 22:08:29
(UTC+00:00)
Language:

ISS - Orbit

View from above orbital plane
View from above orbital plane
View from above satellite
View from above satellite

Ground track
Ground track

The orbit data is extracted from the following two-line orbital elements,

1 25544U 98067A   14304.34391204  .00021508  00000-0  37281-3 0  3318
2 25544 051.6446 144.6432 0003706 345.3699 003.0945 15.50821755912447
Epoch (UTC): 31 October 2014 08:15:14
Eccentricity: 0.0003706
inclination: 51.6446°
perigee height: 412 km
apogee height: 417 km
right ascension of ascending node: 144.6432°
argument of perigee: 345.3699°
revolutions per day: 15.50821755
mean anomaly at epoch: 3.0945°
orbit number at epoch: 91244

The dashed part of the orbit path shows where the satellite is in the earth's shadow,  

DLR